Time,TemperatureF,DewpointF,PressureIn,WindDirection,WindDirectionDegrees,WindSpeedMPH,WindSpeedGustMPH,Humidity,HourlyPrecipIn,Conditions,Clouds,dailyrainin,SoftwareType,DateUTC
2013-05-26 00:02:00,63.0,58.0,30.12,ESE,111,0.0,0.0,85,0.00,,,0.00,,2013-05-26 05:02:00,
2013-05-26 00:12:00,63.0,58.0,30.12,ESE,111,0.0,0.0,85,0.00,,,0.00,,2013-05-26 05:12:00,
2013-05-26 00:22:00,63.0,59.0,30.13,ESE,111,0.0,0.0,86,0.00,,,0.00,,2013-05-26 05:22:00,
2013-05-26 00:32:00,63.0,59.0,30.13,ESE,111,0.0,0.0,87,0.00,,,0.00,,2013-05-26 05:32:00,
2013-05-26 00:42:00,63.0,59.0,30.13,ESE,111,0.0,0.0,87,0.00,,,0.00,,2013-05-26 05:42:00,
2013-05-26 00:52:00,62.0,58.0,30.13,ESE,111,0.0,0.0,88,0.00,,,0.00,,2013-05-26 05:52:00,
2013-05-26 01:01:00,62.0,59.0,30.13,ESE,111,0.0,0.0,89,0.00,,,0.00,,2013-05-26 06:01:00,
2013-05-26 01:12:00,62.0,59.0,30.13,ESE,111,0.0,0.0,89,0.00,,,0.00,,2013-05-26 06:12:00,
2013-05-26 01:22:00,61.0,58.0,30.13,ESE,111,0.0,0.0,89,0.00,,,0.00,,2013-05-26 06:22:00,
2013-05-26 01:32:00,61.0,58.0,30.13,ESE,111,0.0,0.0,90,0.00,,,0.00,,2013-05-26 06:32:00,
2013-05-26 01:42:00,61.0,58.0,30.13,ESE,111,0.0,0.0,90,0.00,,,0.00,,2013-05-26 06:42:00,
2013-05-26 01:52:00,61.0,58.0,30.13,ESE,111,0.0,0.0,91,0.00,,,0.00,,2013-05-26 06:52:00,
2013-05-26 02:01:00,60.0,57.0,30.13,ESE,111,0.0,0.0,91,0.00,,,0.00,,2013-05-26 07:01:00,
2013-05-26 02:11:00,60.0,57.0,30.13,ESE,111,0.0,0.0,91,0.00,,,0.00,,2013-05-26 07:11:00,
2013-05-26 02:21:00,60.0,57.0,30.14,ESE,111,0.0,0.0,91,0.00,,,0.00,,2013-05-26 07:21:00,
2013-05-26 02:31:00,60.0,57.0,30.13,ESE,111,0.0,0.0,91,0.00,,,0.00,,2013-05-26 07:31:00,
2013-05-26 02:42:00,60.0,57.0,30.13,ESE,111,0.0,0.0,91,0.00,,,0.00,,2013-05-26 07:42:00,
2013-05-26 02:52:00,60.0,58.0,30.14,ESE,111,0.0,0.0,92,0.00,,,0.00,,2013-05-26 07:52:00,
2013-05-26 03:01:00,60.0,58.0,30.13,ESE,111,0.0,0.0,92,0.00,,,0.00,,2013-05-26 08:01:00,
2013-05-26 03:12:00,60.0,58.0,30.13,ESE,111,0.0,0.0,92,0.00,,,0.00,,2013-05-26 08:12:00,
2013-05-26 03:21:00,59.0,57.0,30.14,ESE,111,0.0,0.0,92,0.00,,,0.00,,2013-05-26 08:21:00,
2013-05-26 03:32:00,59.0,57.0,30.14,ESE,111,0.0,0.0,93,0.00,,,0.00,,2013-05-26 08:32:00,
2013-05-26 03:42:00,59.0,57.0,30.14,ESE,111,0.0,0.0,93,0.00,,,0.00,,2013-05-26 08:42:00,
2013-05-26 03:53:00,59.0,57.0,30.14,ESE,111,0.0,0.0,93,0.00,,,0.00,,2013-05-26 08:53:00,
2013-05-26 04:01:00,59.0,57.0,30.14,ESE,111,0.0,0.0,93,0.00,,,0.00,,2013-05-26 09:01:00,
2013-05-26 04:11:00,59.0,57.0,30.14,ESE,111,0.0,0.0,93,0.00,,,0.00,,2013-05-26 09:11:00,
2013-05-26 04:21:00,59.0,57.0,30.14,ESE,111,0.0,0.0,93,0.00,,,0.00,,2013-05-26 09:21:00,
2013-05-26 04:33:00,59.0,57.0,30.14,ESE,111,0.0,0.0,94,0.00,,,0.00,,2013-05-26 09:33:00,
2013-05-26 04:42:00,59.0,57.0,30.14,ESE,111,0.0,0.0,94,0.00,,,0.00,,2013-05-26 09:42:00,
2013-05-26 04:53:00,58.0,56.0,30.13,ESE,111,0.0,0.0,93,0.00,,,0.00,,2013-05-26 09:53:00,
2013-05-26 05:02:00,58.0,56.0,30.13,ESE,111,0.0,0.0,94,0.00,,,0.00,,2013-05-26 10:02:00,
2013-05-26 05:12:00,58.0,56.0,30.13,ESE,111,0.0,0.0,94,0.00,,,0.00,,2013-05-26 10:12:00,
2013-05-26 05:23:00,58.0,56.0,30.13,ESE,111,0.0,0.0,94,0.00,,,0.00,,2013-05-26 10:23:00,
2013-05-26 05:32:00,58.0,56.0,30.13,ESE,111,0.0,0.0,94,0.00,,,0.00,,2013-05-26 10:32:00,
2013-05-26 05:42:00,58.0,56.0,30.13,ESE,111,0.0,0.0,94,0.00,,,0.00,,2013-05-26 10:42:00,
2013-05-26 05:52:00,58.0,56.0,30.13,ESE,111,0.0,0.0,94,0.00,,,0.00,,2013-05-26 10:52:00,
2013-05-26 06:03:00,58.0,56.0,30.14,ESE,111,0.0,0.0,94,0.00,,,0.00,,2013-05-26 11:03:00,
2013-05-26 06:11:00,58.0,56.0,30.14,ESE,111,0.0,0.0,94,0.00,,,0.00,,2013-05-26 11:11:00,
2013-05-26 06:22:00,58.0,56.0,30.14,ESE,111,0.0,0.0,94,0.00,,,0.00,,2013-05-26 11:22:00,
2013-05-26 06:32:00,58.0,56.0,30.14,ESE,111,0.0,0.0,94,0.00,,,0.00,,2013-05-26 11:32:00,
2013-05-26 06:42:00,58.0,56.0,30.14,ESE,111,0.0,0.0,94,0.00,,,0.00,,2013-05-26 11:42:00,
2013-05-26 06:52:00,58.0,57.0,30.15,ESE,111,0.0,0.0,95,0.00,,,0.00,,2013-05-26 11:52:00,
2013-05-26 07:02:00,59.0,58.0,30.16,ESE,111,0.0,0.0,95,0.00,,,0.00,,2013-05-26 12:02:00,
2013-05-26 07:12:00,59.0,58.0,30.16,ESE,111,0.0,0.0,95,0.00,,,0.00,,2013-05-26 12:12:00,
2013-05-26 07:21:00,61.0,60.0,30.16,ESE,111,0.0,0.0,95,0.00,,,0.00,,2013-05-26 12:21:00,
2013-05-26 07:32:00,62.0,60.0,30.16,ESE,111,0.0,0.0,92,0.00,,,0.00,,2013-05-26 12:32:00,
2013-05-26 07:42:00,62.0,60.0,30.16,ESE,111,0.0,0.0,92,0.00,,,0.00,,2013-05-26 12:42:00,
2013-05-26 07:52:00,64.0,60.0,30.17,ESE,109,0.0,0.0,88,0.00,,,0.00,,2013-05-26 12:52:00,
2013-05-26 08:02:00,66.0,60.0,30.16,ESE,113,0.0,0.0,82,0.00,,,0.00,,2013-05-26 13:02:00,
2013-05-26 08:11:00,66.0,60.0,30.16,ESE,113,0.0,0.0,82,0.00,,,0.00,,2013-05-26 13:11:00,
2013-05-26 08:21:00,68.0,59.0,30.16,SSW,207,1.0,6.0,73,0.00,,,0.00,,2013-05-26 13:21:00,
2013-05-26 08:32:00,70.0,59.0,30.16,SSE,156,0.0,5.0,69,0.00,,,0.00,,2013-05-26 13:32:00,
2013-05-26 08:42:00,70.0,59.0,30.16,SSE,156,0.0,5.0,69,0.00,,,0.00,,2013-05-26 13:42:00,
2013-05-26 08:52:00,72.0,60.0,30.16,South,182,0.0,4.0,66,0.00,,,0.00,,2013-05-26 13:52:00,
2013-05-26 09:02:00,73.0,59.0,30.17,SSW,209,1.0,5.0,62,0.00,,,0.00,,2013-05-26 14:02:00,
2013-05-26 09:11:00,73.0,59.0,30.17,SSW,209,1.0,5.0,62,0.00,,,0.00,,2013-05-26 14:11:00,
2013-05-26 09:21:00,76.0,60.0,30.17,SSE,149,0.0,2.0,57,0.00,,,0.00,,2013-05-26 14:21:00,
2013-05-26 09:32:00,76.0,59.0,30.17,SSE,158,3.0,6.0,55,0.00,,,0.00,,2013-05-26 14:32:00,
2013-05-26 09:42:00,76.0,59.0,30.17,SSE,158,3.0,6.0,55,0.00,,,0.00,,2013-05-26 14:42:00,
2013-05-26 09:52:00,77.0,59.0,30.17,South,189,0.0,6.0,53,0.00,,,0.00,,2013-05-26 14:52:00,
2013-05-26 10:01:00,79.0,60.0,30.17,WSW,254,1.0,9.0,52,0.00,,,0.00,,2013-05-26 15:01:00,
2013-05-26 10:12:00,79.0,60.0,30.17,WSW,254,1.0,9.0,52,0.00,,,0.00,,2013-05-26 15:12:00,
2013-05-26 10:22:00,78.0,59.0,30.17,SSW,196,3.0,8.0,52,0.00,,,0.00,,2013-05-26 15:22:00,
2013-05-26 10:33:00,79.0,59.0,30.16,South,188,0.0,5.0,50,0.00,,,0.00,,2013-05-26 15:33:00,
2013-05-26 10:43:00,79.0,59.0,30.16,South,188,0.0,5.0,50,0.00,,,0.00,,2013-05-26 15:43:00,
2013-05-26 10:53:00,79.0,56.0,30.16,ESE,111,3.0,9.0,46,0.00,,,0.00,,2013-05-26 15:53:00,
2013-05-26 11:03:00,81.0,58.0,30.16,SSW,207,2.0,8.0,45,0.00,,,0.00,,2013-05-26 16:03:00,
2013-05-26 11:12:00,81.0,58.0,30.16,SSW,207,2.0,8.0,45,0.00,,,0.00,,2013-05-26 16:12:00,
2013-05-26 11:23:00,82.0,58.0,30.16,WSW,244,3.0,8.0,44,0.00,,,0.00,,2013-05-26 16:23:00,
2013-05-26 11:33:00,82.0,57.0,30.16,East,81,1.0,8.0,43,0.00,,,0.00,,2013-05-26 16:33:00,
2013-05-26 11:42:00,82.0,57.0,30.16,East,81,1.0,8.0,43,0.00,,,0.00,,2013-05-26 16:42:00,
2013-05-26 11:53:00,83.0,58.0,30.16,WSW,244,5.0,8.0,42,0.00,,,0.00,,2013-05-26 16:53:00,
2013-05-26 12:02:00,83.0,58.0,30.16,SSW,211,0.0,9.0,43,0.00,,,0.00,,2013-05-26 17:02:00,
2013-05-26 12:11:00,83.0,58.0,30.16,SSW,211,0.0,9.0,43,0.00,,,0.00,,2013-05-26 17:11:00,
2013-05-26 12:22:00,84.0,58.0,30.16,SW,216,3.0,7.0,41,0.00,,,0.00,,2013-05-26 17:22:00,
2013-05-26 12:32:00,84.0,56.0,30.15,SW,218,4.0,10.0,38,0.00,,,0.00,,2013-05-26 17:32:00,
2013-05-26 12:42:00,84.0,56.0,30.15,SW,218,4.0,10.0,38,0.00,,,0.00,,2013-05-26 17:42:00,
2013-05-26 12:52:00,86.0,57.0,30.15,SSW,207,2.0,7.0,37,0.00,,,0.00,,2013-05-26 17:52:00,
2013-05-26 13:01:00,85.0,57.0,30.14,SW,219,0.0,10.0,39,0.00,,,0.00,,2013-05-26 18:01:00,
2013-05-26 13:12:00,85.0,57.0,30.14,SW,219,0.0,10.0,39,0.00,,,0.00,,2013-05-26 18:12:00,
2013-05-26 13:21:00,84.0,57.0,30.14,ESE,117,4.0,8.0,40,0.00,,,0.00,,2013-05-26 18:21:00,
2013-05-26 13:32:00,86.0,58.0,30.14,SSE,153,1.0,6.0,39,0.00,,,0.00,,2013-05-26 18:32:00,
2013-05-26 13:42:00,86.0,58.0,30.14,SSE,153,1.0,6.0,39,0.00,,,0.00,,2013-05-26 18:42:00,
2013-05-26 13:52:00,85.0,57.0,30.14,South,182,5.0,9.0,39,0.00,,,0.00,,2013-05-26 18:52:00,
2013-05-26 14:01:00,86.0,58.0,30.13,SW,230,1.0,7.0,39,0.00,,,0.00,,2013-05-26 19:01:00,
2013-05-26 14:11:00,86.0,58.0,30.13,SW,230,1.0,7.0,39,0.00,,,0.00,,2013-05-26 19:11:00,
2013-05-26 14:22:00,86.0,56.0,30.13,South,184,7.0,13.0,36,0.00,,,0.00,,2013-05-26 19:22:00,
2013-05-26 14:32:00,87.0,57.0,30.13,South,184,3.0,8.0,36,0.00,,,0.00,,2013-05-26 19:32:00,
2013-05-26 14:42:00,87.0,57.0,30.13,South,184,3.0,8.0,36,0.00,,,0.00,,2013-05-26 19:42:00,
2013-05-26 14:52:00,87.0,57.0,30.12,ESE,120,2.0,9.0,36,0.00,,,0.00,,2013-05-26 19:52:00,
2013-05-26 15:02:00,86.0,56.0,30.11,SE,124,5.0,13.0,36,0.00,,,0.00,,2013-05-26 20:02:00,
2013-05-26 15:11:00,86.0,56.0,30.11,SE,124,5.0,13.0,36,0.00,,,0.00,,2013-05-26 20:11:00,
2013-05-26 15:22:00,87.0,57.0,30.11,South,186,3.0,9.0,36,0.00,,,0.00,,2013-05-26 20:22:00,
2013-05-26 15:32:00,88.0,54.0,30.11,NW,304,4.0,9.0,32,0.00,,,0.00,,2013-05-26 20:32:00,
2013-05-26 15:42:00,88.0,54.0,30.11,NW,304,4.0,9.0,32,0.00,,,0.00,,2013-05-26 20:42:00,
2013-05-26 15:52:00,87.0,53.0,30.10,South,175,3.0,10.0,31,0.00,,,0.00,,2013-05-26 20:52:00,
2013-05-26 16:01:00,87.0,54.0,30.10,NW,323,0.0,11.0,33,0.00,,,0.00,,2013-05-26 21:01:00,
2013-05-26 16:11:00,87.0,54.0,30.10,NW,323,0.0,11.0,33,0.00,,,0.00,,2013-05-26 21:11:00,
2013-05-26 16:22:00,87.0,54.0,30.09,SSE,148,1.0,7.0,33,0.00,,,0.00,,2013-05-26 21:22:00,
2013-05-26 16:33:00,87.0,54.0,30.09,SSW,192,5.0,10.0,32,0.00,,,0.00,,2013-05-26 21:33:00,
2013-05-26 16:43:00,87.0,54.0,30.09,SSW,192,5.0,10.0,32,0.00,,,0.00,,2013-05-26 21:43:00,
2013-05-26 16:53:00,87.0,54.0,30.08,South,188,1.0,9.0,33,0.00,,,0.00,,2013-05-26 21:53:00,
2013-05-26 17:02:00,88.0,56.0,30.07,SSE,161,4.0,8.0,34,0.00,,,0.00,,2013-05-26 22:02:00,
2013-05-26 17:12:00,88.0,56.0,30.07,SSE,161,4.0,8.0,34,0.00,,,0.00,,2013-05-26 22:12:00,
2013-05-26 17:23:00,86.0,54.0,30.06,SSW,204,4.0,9.0,34,0.00,,,0.00,,2013-05-26 22:23:00,
2013-05-26 17:33:00,86.0,54.0,30.06,SSW,201,2.0,8.0,34,0.00,,,0.00,,2013-05-26 22:33:00,
2013-05-26 17:42:00,86.0,57.0,30.06,SSW,196,4.0,9.0,38,0.00,,,0.00,,2013-05-26 22:42:00,
2013-05-26 17:53:00,86.0,57.0,30.06,SSW,196,4.0,9.0,38,0.00,,,0.00,,2013-05-26 22:53:00,
2013-05-26 18:02:00,84.0,59.0,30.06,SW,221,6.0,10.0,43,0.00,,,0.00,,2013-05-26 23:02:00,
2013-05-26 18:11:00,84.0,59.0,30.06,SW,221,6.0,10.0,43,0.00,,,0.00,,2013-05-26 23:11:00,
2013-05-26 18:22:00,85.0,59.0,30.06,South,182,5.0,11.0,41,0.00,,,0.00,,2013-05-26 23:22:00,
2013-05-26 18:32:00,84.0,55.0,30.06,SSW,195,1.0,7.0,37,0.00,,,0.00,,2013-05-26 23:32:00,
2013-05-26 18:43:00,84.0,55.0,30.06,SSW,195,1.0,7.0,37,0.00,,,0.00,,2013-05-26 23:43:00,
2013-05-26 18:52:00,84.0,56.0,30.06,SSE,150,2.0,8.0,38,0.00,,,0.00,,2013-05-26 23:52:00,
2013-05-26 19:02:00,84.0,56.0,30.06,South,176,0.0,5.0,38,0.00,,,0.00,,2013-05-27 00:02:00,
2013-05-26 19:11:00,84.0,56.0,30.06,South,176,0.0,5.0,38,0.00,,,0.00,,2013-05-27 00:11:00,
2013-05-26 19:21:00,83.0,57.0,30.06,ESE,117,0.0,6.0,41,0.00,,,0.00,,2013-05-27 00:21:00,
2013-05-26 19:32:00,82.0,57.0,30.06,SE,142,1.0,5.0,42,0.00,,,0.00,,2013-05-27 00:32:00,
2013-05-26 19:42:00,82.0,57.0,30.06,SE,142,1.0,5.0,42,0.00,,,0.00,,2013-05-27 00:42:00,
2013-05-26 19:52:00,81.0,57.0,30.06,SSE,157,0.0,5.0,44,0.00,,,0.00,,2013-05-27 00:52:00,
2013-05-26 20:01:00,80.0,58.0,30.06,SSW,200,0.0,0.0,47,0.00,,,0.00,,2013-05-27 01:01:00,
2013-05-26 20:11:00,80.0,58.0,30.06,SSW,200,0.0,0.0,47,0.00,,,0.00,,2013-05-27 01:11:00,
2013-05-26 20:22:00,79.0,59.0,30.06,SSW,200,0.0,0.0,50,0.00,,,0.00,,2013-05-27 01:22:00,
2013-05-26 20:31:00,78.0,61.0,30.05,SSW,200,0.0,0.0,55,0.00,,,0.00,,2013-05-27 01:31:00,
2013-05-26 20:42:00,77.0,61.0,30.06,SSW,200,0.0,0.0,57,0.00,,,0.00,,2013-05-27 01:42:00,
2013-05-26 20:52:00,77.0,61.0,30.06,SSW,200,0.0,0.0,57,0.00,,,0.00,,2013-05-27 01:52:00,
2013-05-26 21:01:00,76.0,61.0,30.06,SSW,200,0.0,0.0,59,0.00,,,0.00,,2013-05-27 02:01:00,
2013-05-26 21:11:00,76.0,61.0,30.06,SSW,200,0.0,0.0,59,0.00,,,0.00,,2013-05-27 02:11:00,
2013-05-26 21:21:00,74.0,60.0,30.06,SSW,200,0.0,0.0,61,0.00,,,0.00,,2013-05-27 02:21:00,
2013-05-26 21:32:00,73.0,61.0,30.06,SSW,200,0.0,0.0,65,0.00,,,0.00,,2013-05-27 02:32:00,
2013-05-26 21:42:00,73.0,61.0,30.06,SSW,200,0.0,0.0,65,0.00,,,0.00,,2013-05-27 02:42:00,
2013-05-26 21:52:00,72.0,60.0,30.06,SSW,200,0.0,0.0,67,0.00,,,0.00,,2013-05-27 02:52:00,
2013-05-26 22:02:00,71.0,59.0,30.06,SSW,200,0.0,0.0,67,0.00,,,0.00,,2013-05-27 03:02:00,
2013-05-26 22:11:00,71.0,59.0,30.06,SSW,200,0.0,0.0,67,0.00,,,0.00,,2013-05-27 03:11:00,
2013-05-26 22:21:00,71.0,59.0,30.06,SSW,200,0.0,0.0,67,0.00,,,0.00,,2013-05-27 03:21:00,
2013-05-26 22:33:00,72.0,60.0,30.06,SSW,200,0.0,0.0,66,0.00,,,0.00,,2013-05-27 03:33:00,
2013-05-26 22:43:00,72.0,60.0,30.06,SSW,200,0.0,0.0,66,0.00,,,0.00,,2013-05-27 03:43:00,
2013-05-26 22:53:00,71.0,59.0,30.06,SSW,200,0.0,0.0,66,0.00,,,0.00,,2013-05-27 03:53:00,
2013-05-26 23:02:00,72.0,60.0,30.06,SSW,200,0.0,0.0,65,0.00,,,0.00,,2013-05-27 04:02:00,
2013-05-26 23:12:00,72.0,60.0,30.06,SSW,200,0.0,0.0,65,0.00,,,0.00,,2013-05-27 04:12:00,
2013-05-26 23:23:00,72.0,59.0,30.06,SSW,200,0.0,0.0,64,0.00,,,0.00,,2013-05-27 04:23:00,
2013-05-26 23:33:00,72.0,60.0,30.06,SSW,200,0.0,0.0,65,0.00,,,0.00,,2013-05-27 04:33:00,
2013-05-26 23:42:00,72.0,60.0,30.06,SSW,196,0.0,2.0,65,0.00,,,0.00,,2013-05-27 04:42:00,
2013-05-26 23:52:00,72.0,60.0,30.06,SSW,196,0.0,2.0,65,0.00,,,0.00,,2013-05-27 04:52:00,